Flag Weather past 2 weeks in Adelaide, South Australia, Australia

Now
68 °F

Sunny.


Feels Like: 68 °F
Forecast: 60 / 84 °F
Wind: 8 mph from Northwest

Location: Adelaide Airport

Current Time: Nov 21, 2014 at 1:02:19 PM

Latest Report: Nov 21, 2014 at 12:30 PM


Visibility: 10 mi

Pressure: 29.92 "Hg

Humidity: 53%

Dew point: 50 °F

Location of AdelaideLocation

Historic Weather in Adelaide — Graph

°F

Adelaide temperature yesterday

Maximum temperature yesterday: 84 °F (at 2:00 AM)
Minimum temperature yesterday: 63 °F (at 10:00 PM)
Average temperature yesterday: 72 °F

Past Weeks' High & Low Weather Summary

 TemperatureHumidityPressure
High99 °F (Nov 13, 1:00 PM)94% (Nov 15, 4:30 PM)30.27 "Hg (Nov 15, 4:30 PM)
Low48 °F (Nov 11, 6:00 AM)4% (Nov 13, 4:00 PM)29.68 "Hg (Nov 13, 3:30 PM)
Average68 °F52%29.98 "Hg
* Reported Nov 6 11:30 AM — Nov 21 11:30 AM, Adelaide, Weather by CustomWeather, © 2014

Note: Actual official high and low records may vary slightly from our data, if they occured in-between our weather recording intervals... More about our weather records

Advertising

Adelaide weather history for previous 24 hours

 ConditionsComfort  
Time TempWeatherWind HumidityBarometerVisibility
11:30 AM
Nov 21
66 °FScattered clouds.9 mph60%29.92 "HgN/A
11:00 AM66 °FPassing clouds.8 mph60%29.92 "HgN/A
10:30 AM64 °FPassing clouds.7 mph56%29.95 "HgN/A
10:00 AM64 °FPassing clouds.6 mph60%29.92 "HgN/A
9:30 AM64 °FPassing clouds.7 mph56%29.92 "HgN/A
9:00 AM64 °FPassing clouds.8 mph56%29.92 "HgN/A
8:30 AM64 °FPassing clouds.6 mph60%29.92 "HgN/A
7:30 AM63 °FScattered clouds.7 mph64%29.89 "HgN/A
7:00 AM61 °FScattered clouds.6 mph68%29.89 "HgN/A
6:30 AM59 °FScattered clouds.5 mph68%29.89 "HgN/A
5:30 AM61 °FPartly sunny.12 mph68%29.89 "HgN/A
5:00 AM61 °FPassing clouds.7 mph68%29.86 "HgN/A
4:30 AM61 °FPassing clouds.9 mph68%29.86 "HgN/A
4:00 AM61 °FPassing clouds.10 mph68%29.86 "HgN/A
3:30 AM61 °FPassing clouds.9 mph68%29.86 "HgN/A
3:00 AM61 °FPassing clouds.12 mph68%29.86 "HgN/A
2:30 AM61 °FPassing clouds.12 mph68%29.86 "HgN/A
2:00 AM61 °FPartly cloudy.9 mph77%29.86 "HgN/A
1:30 AM61 °FPartly cloudy.12 mph77%29.89 "HgN/A
12:30 AM63 °FPartly cloudy.13 mph77%29.89 "HgN/A
12:00 AM63 °FPartly cloudy.12 mph77%29.89 "HgN/A
11:30 PM
Nov 20
63 °FPassing clouds.12 mph83%29.86 "HgN/A
11:00 PM63 °FPartly cloudy.12 mph88%29.86 "HgN/A
10:30 PM63 °FLight rain. Passing clouds.12 mph94%29.86 "HgN/A
10:00 PM63 °FPassing clouds.18 mph88%29.86 "HgN/A
9:30 PM64 °FPassing clouds.17 mph83%29.86 "HgN/A
9:00 PM64 °FPassing clouds.18 mph83%29.83 "HgN/A
8:30 PM64 °FPartly cloudy.20 mph83%29.83 "HgN/A
8:00 PM64 °FPartly cloudy.16 mph83%29.80 "HgN/A
7:30 PM64 °FBroken clouds.17 mph83%29.80 "HgN/A
6:30 PM66 °FBroken clouds.17 mph78%29.77 "HgN/A
6:00 PM66 °FScattered clouds.17 mph78%29.77 "HgN/A
5:30 PM68 °FPassing clouds.13 mph73%29.74 "HgN/A
5:00 PM68 °FScattered clouds.15 mph78%29.77 "HgN/A
4:30 PM68 °FScattered showers. Partly sunny.17 mph83%29.74 "HgN/A
4:00 PM73 °FPassing clouds.13 mph74%29.74 "HgN/A
3:30 PM73 °FPartly sunny.18 mph78%29.74 "HgN/A
3:00 PM75 °FBroken clouds.20 mph78%29.74 "HgN/A
2:30 PM73 °FBroken clouds.18 mph78%29.74 "HgN/A
1:30 PM70 °FScattered showers. Broken clouds.18 mph88%29.77 "HgN/A
Weather by CustomWeather, © 2014

See weather overviewHow to use our weather pages